This is the latest recevied weather packets stored in our database for station/object OE-11053. If no packets are shown the sender has not sent any weather packets the latest 10 day(s).
| Time | Temp. | Humidity | Pressure | Rain* | Wind** | Luminosity | Snow |
|---|---|---|---|---|---|---|---|
| 1787708496 | 13.33° C | 96% | 1017.2 hPa | 0 mm | - | 0 W/m² | - |
| 1787708123 | 12.78° C | 97% | 1017 hPa | 0 mm | - | 0 W/m² | - |
| 1787707523 | 12.78° C | 96% | 1016.9 hPa | 0 mm | - | 0 W/m² | - |
| 1787706695 | 12.78° C | 96% | 1016.9 hPa | 0 mm | - | 0 W/m² | - |
| 1787706322 | 12.78° C | 96% | 1017 hPa | 0 mm | - | 0 W/m² | - |
| 1787705723 | 12.78° C | 96% | 1017 hPa | 0 mm | - | 0 W/m² | - |
| 1787704896 | 13.33° C | 96% | 1016.9 hPa | 0 mm | - | 0 W/m² | - |
| 1787704523 | 13.33° C | 96% | 1017 hPa | 0 mm | - | 0 W/m² | - |
| 1787703923 | 13.33° C | 96% | 1016.9 hPa | 0 mm | - | 0 W/m² | - |
| 1787703095 | 13.33° C | 96% | 1016.9 hPa | 0 mm | - | 0 W/m² | - |
| 1787702723 | 13.89° C | 96% | 1016.8 hPa | 0 mm | - | 0 W/m² | - |
| 1787702123 | 13.89° C | 96% | 1016.9 hPa | 0 mm | - | 0 W/m² | - |
| 1787701295 | 13.89° C | 96% | 1016.9 hPa | 0 mm | - | 0 W/m² | - |
| 1787700923 | 14.44° C | 96% | 1016.8 hPa | 0 mm | - | 0 W/m² | - |
| 1787700323 | 13.89° C | 96% | 1017.1 hPa | 0 mm | - | 0 W/m² | - |
| 1787699723 | 14.44° C | 96% | 1017.1 hPa | 0 mm | - | 0 W/m² | - |
| 1787699122 | 14.44° C | 96% | 1016.9 hPa | 0 mm | - | 0 W/m² | - |
| 1787698523 | 14.44° C | 96% | 1016.9 hPa | 0 mm | - | 0 W/m² | - |
| 1787697697 | 14.44° C | 95% | 1016.8 hPa | 0 mm | - | 0 W/m² | - |
| 1787697322 | 14.44° C | 96% | 1016.8 hPa | 0 mm | - | 0 W/m² | - |
| 1787696723 | 14.44° C | 96% | 1016.6 hPa | 0 mm | - | 0 W/m² | - |
| 1787695896 | 14.44° C | 96% | 1016.7 hPa | 0 mm | - | 0 W/m² | - |
| 1787695523 | 14.44° C | 96% | 1016.9 hPa | 0 mm | - | 0 W/m² | - |
| 1787694922 | 14.44° C | 96% | 1016.8 hPa | 0 mm | - | 0 W/m² | - |
| 1787694096 | 14.44° C | 96% | 1016.6 hPa | 0 mm | - | 0 W/m² | - |
* Rain latest hour (hover to see other rain measurements)
** Current wind speed in m/s (hover to see current wind gust speed)